This is the latest recevied weather packets stored in our database for station/object K7NDG. If no packets are shown the sender has not sent any weather packets the latest 10 day(s).
| Time | Temp. | Humidity | Pressure | Rain* | Wind** | Luminosity | Snow |
|---|---|---|---|---|---|---|---|
| 1777761860 | 26.67° C | 48% | 1013.6 hPa | 0 mm | - | 636 W/m² | - |
| 1777761557 | 26.67° C | 51% | 1013.6 hPa | 0 mm | - | 635 W/m² | - |
| 1777761255 | 26.67° C | 51% | 1013.9 hPa | 0 mm | - | 680 W/m² | - |
| 1777760954 | 26.67° C | 51% | 1014.1 hPa | 0 mm | - | 679 W/m² | - |
| 1777760650 | 26.67° C | 49% | 1014 hPa | 0 mm | - | 656 W/m² | - |
| 1777760345 | 26.11° C | 51% | 1014.2 hPa | 0 mm | - | 675 W/m² | - |
| 1777760042 | 26.11° C | 53% | 1014.2 hPa | 0 mm | - | 689 W/m² | - |
| 1777759739 | 25.56° C | 54% | 1014.2 hPa | 0 mm | - | 673 W/m² | - |
| 1777759435 | 25.56° C | 52% | 1014.3 hPa | 0 mm | - | 679 W/m² | - |
| 1777759132 | 25.56° C | 54% | 1014.3 hPa | 0 mm | - | 650 W/m² | - |
| 1777758830 | 25° C | 54% | 1014.7 hPa | 0 mm | - | 681 W/m² | - |
| 1777758526 | 25° C | 53% | 1014.6 hPa | 0 mm | - | 670 W/m² | - |
| 1777758223 | 25° C | 53% | 1014.4 hPa | 0 mm | - | 668 W/m² | - |
| 1777757920 | 25° C | 55% | 1014.5 hPa | 0 mm | - | 673 W/m² | - |
| 1777757617 | 24.44° C | 54% | 1014.6 hPa | 0 mm | - | 662 W/m² | - |
| 1777757316 | 23.89° C | 54% | 1014.9 hPa | 0 mm | - | 662 W/m² | - |
| 1777757014 | 23.89° C | 56% | 1014.8 hPa | 0 mm | - | 654 W/m² | - |
| 1777756711 | 23.89° C | 55% | 1014.8 hPa | 0 mm | - | 646 W/m² | - |
| 1777756406 | 23.89° C | 56% | 1014.9 hPa | 0 mm | - | 647 W/m² | - |
| 1777756104 | 23.89° C | 55% | 1015.2 hPa | 0 mm | - | 645 W/m² | - |
| 1777755801 | 23.89° C | 57% | 1015 hPa | 0 mm | - | 614 W/m² | - |
| 1777755498 | 23.89° C | 55% | 1015.1 hPa | 0 mm | - | 641 W/m² | - |
| 1777755194 | 23.89° C | 54% | 1015.2 hPa | 0 mm | - | 645 W/m² | - |
| 1777754891 | 23.89° C | 57% | 1015.2 hPa | 0 mm | - | 641 W/m² | - |
| 1777754588 | 23.33° C | 58% | 1015.5 hPa | 0 mm | - | 322 W/m² | - |
* Rain latest hour (hover to see other rain measurements)
** Current wind speed in m/s (hover to see current wind gust speed)